Weather History for Beverly, MA

Change the Weather History Date:

Thursday, April 3, 2014

  Actual Average Record
Temperature  
Mean Temperature 39 °F -  
Max Temperature 54 °F 46 °F 75 °F (1981)
Min Temperature 26 °F 30 °F 26 °F (2014)
Degree Days  
Heating Degree Days 26    
Moisture  
Dew Point 26 °F    
Average Humidity 73    
Maximum Humidity 96    
Minimum Humidity 32    
Precipitation  
Precipitation 0.00 in - - ()
Sea Level Pressure  
Sea Level Pressure 30.06 in    
Wind  
Wind Speed 3 mph (NW)    
Max Wind Speed 17 mph    
Max Gust Speed 23 mph    
Visibility 7 miles    
Events Fog    
Averages and records for this station are not official NWS values.
T = Trace of Precipitation, MM = Missing Value Source: NWS Daily Summary

Daily Weather History Graph

Daily Weather History Graph

Search for Another Location

Airport:

Trip Planner

Search our weather history database for the weather conditions in past years. The results will help you decide how hot, cold, wet, or windy it might be!

Date:

Astronomy

Apr. 03, 2014 Rise Set
Actual Time 6:22 AM EDT 7:11 PM EDT
Civil Twilight 5:54 AM EDT 7:40 PM EDT
Nautical Twilight 5:20 AM EDT 8:14 PM EDT
Astronomical Twilight 4:45 AM EDT 8:49 PM EDT
Moon 8:45 AM EDT (4/3) 11:33 PM EDT (4/3)
Length of Visible Light 13h 46m
Length of Day
12h 49m
Waxing Crescent, 17% of the Moon is Illuminated
Apr 3
Waxing Crescent
Apr 7
First Quarter
Apr 15
Full
Apr 22
Last Quarter
Apr 29
New

Hourly Weather History & Observations

Time (EDT) Temp. Windchill Dew Point Humidity Pressure Visibility Wind Dir Wind Speed Gust Speed Precip Events Conditions
12:53 AM 30.0 °F - 28.0 °F 92% 30.04 in 5.0 mi Calm Calm - N/A   Clear
1:09 AM 30.0 °F - 28.0 °F 92% 30.04 in 1.8 mi Calm Calm - N/A   Clear
1:23 AM 30.0 °F - 28.0 °F 92% 30.04 in 3.0 mi Calm Calm - N/A   Clear
1:53 AM 28.9 °F 23.9 °F 27.0 °F 92% 30.03 in 6.0 mi NNW 4.6 mph - N/A   Clear
2:33 AM 28.0 °F - 26.1 °F 92% 30.04 in 1.8 mi Calm Calm - N/A   Clear
2:47 AM 26.6 °F - 24.8 °F 93% 30.04 in 3.0 mi Calm Calm - N/A   Clear
2:53 AM 27.0 °F - 24.1 °F 89% 30.03 in 5.0 mi Calm Calm - N/A   Clear
2:57 AM 28.0 °F - 25.0 °F 88% 30.04 in 1.5 mi Calm Calm - N/A   Clear
3:06 AM 28.0 °F - 25.0 °F 88% 30.04 in 0.5 mi Calm Calm - N/A Fog Light Freezing Fog
3:17 AM 28.0 °F - 25.0 °F 88% 30.04 in 1.8 mi Calm Calm - N/A   Clear
3:20 AM 28.0 °F 24.2 °F 26.1 °F 92% 30.04 in 3.0 mi SW 3.5 mph - N/A   Clear
3:53 AM 28.9 °F - 27.0 °F 92% 30.03 in 5.0 mi Calm Calm - N/A   Clear
4:02 AM 28.0 °F - 27.0 °F 96% 30.04 in 1.5 mi Calm Calm - N/A   Clear
4:16 AM 28.0 °F - 25.0 °F 88% 30.04 in 3.0 mi Calm Calm - N/A   Clear
4:53 AM 28.0 °F - 24.1 °F 85% 30.03 in 7.0 mi Calm Calm - N/A   Clear
5:53 AM 28.9 °F 22.8 °F 25.0 °F 85% 30.04 in 10.0 mi NW 5.8 mph - N/A   Clear
6:53 AM 30.0 °F 24.1 °F 25.0 °F 82% 30.06 in 10.0 mi NW 5.8 mph - N/A   Clear
7:53 AM 37.9 °F 32.7 °F 26.1 °F 62% 30.07 in 10.0 mi NW 6.9 mph - N/A   Clear
8:53 AM 42.1 °F 37.7 °F 27.0 °F 55% 30.08 in 10.0 mi North 6.9 mph - N/A   Clear
9:53 AM 46.0 °F 39.6 °F 26.1 °F 46% 30.08 in 10.0 mi NW 15.0 mph - N/A   Clear
10:53 AM 48.0 °F - 25.0 °F 41% 30.08 in 10.0 mi NNW 12.7 mph - N/A   Clear
11:53 AM 50.0 °F - 24.1 °F 36% 30.08 in 10.0 mi North 17.3 mph 23.0 mph N/A   Clear
12:53 PM 50.0 °F - 24.1 °F 36% 30.06 in 10.0 mi NNW 11.5 mph 19.6 mph N/A   Clear
1:53 PM 52.0 °F - 23.0 °F 32% 30.04 in 10.0 mi WNW 8.1 mph - N/A   Clear
2:53 PM 48.0 °F - 28.0 °F 46% 30.05 in 10.0 mi SE 9.2 mph 16.1 mph N/A   Clear
3:53 PM 46.9 °F - 27.0 °F 46% 30.04 in 10.0 mi SE 8.1 mph - N/A   Clear
4:53 PM 45.0 °F 39.3 °F 28.0 °F 52% 30.06 in 10.0 mi SSE 11.5 mph - N/A   Clear
5:53 PM 44.1 °F 40.8 °F 28.9 °F 55% 30.06 in 10.0 mi SE 5.8 mph - N/A   Clear
6:53 PM 39.9 °F 35.1 °F 27.0 °F 60% 30.07 in 10.0 mi SE 6.9 mph - N/A   Clear
7:53 PM 37.9 °F 35.5 °F 30.0 °F 73% 30.09 in 10.0 mi South 3.5 mph - N/A   Clear
8:53 PM 37.0 °F - 30.0 °F 76% 30.09 in 10.0 mi Calm Calm - N/A   Clear
9:53 PM 36.0 °F - 28.9 °F 76% 30.11 in 10.0 mi Calm Calm - N/A   Clear
11:53 PM 32.0 °F - 27.0 °F 82% 30.14 in 10.0 mi Calm Calm - N/A   Clear